Regional Weather Roundup
Issued by NWS State College, PA

Home | Current Version | Previous Version | Text Only | Print | Product List | Glossary On
Versions: 1 2 3 4 5 6 7 8 9 10 11 12 13 14 15 16 17 18 19 20 21 22 23 24 25 26 27 28 29 30 31 32 33 34 35 36 37 38 39 40 41 42 43 44 45 46 47 48 49 50
000
ASUS41 KCTP 210110
RWRCTP

REGIONAL WEATHER ROUNDUP
NATIONAL WEATHER SERVICE STATE COLLEGE PA
900 PM EDT WED AUG 20 2014

Note: "fair" indicates few or no clouds below 12,000 feet with no
significant weather and/or obstructions to visibility.

* = STATION THAT DOES NOT REPORT PRECIPITATION /E.G. RAIN...SNOW...ETC/
    THUNDER OR FOG.

PAZ002>004-007>009-013>016-020>023-029>032-210200-
WESTERN PENNSYLVANIA

CITY           SKY/WX    TMP DP  RH WIND       PRES   REMARKS
ERIE           PTCLDY    71  66  84 S7        29.91R
MEADVILLE      PTCLDY    68  64  87 CALM      29.95S
FRANKLIN*      PTCLDY    64  63  94 S3        29.98S
NEW CASTLE     NOT AVBL
BEAVER COUNTY  CLEAR     70  64  83 NW3       29.96R
BUTLER*        PTCLDY    72  66  83 CALM      29.98R
PITTSBURGH INT PTCLDY    69  68  96 CALM      29.95S
PITTSBURGH     MOCLDY    71  63  75 SW12      29.97R
INDIANA*       PTCLDY    72  68  88 CALM      30.01R
LATROBE        PTCLDY    73  72  94 SW9       29.97F
WASHINGTON CO* PTCLDY    66  64  94 CALM      29.98S
$$

PAZ004>006-010>012-017>019-024>028-033>037-041-042-045-046-049>053-210200-
CENTRAL PENNSYLVANIA

CITY           SKY/WX    TMP DP  RH WIND       PRES   REMARKS
BRADFORD       CLOUDY    67  63  87 CALM      29.99S
DUBOIS         LGT RAIN  71  66  84 SW3       29.99R
CLEARFIELD     MOCLDY    70  67  90 N5        29.99R
JOHNSTOWN      MOCLDY    72  62  71 S3        30.01F
ALTOONA        PTCLDY    70  68  93 SE5       30.00S
STATE COLLEGE  MOCLDY    70  68  94 CALM      30.00R
WILLIAMSPORT   MOCLDY    73  66  78 E7        29.96R
SELINSGROVE    MOCLDY    68  66  93 CALM      29.99R FOG
FT INDIANTOWN  CLOUDY    70  70 100 N1        29.99S
CAPITAL CITY   MOCLDY    74  65  73 SE3       29.98S
HARRISBURG     MOCLDY    75  67  76 S6        29.97S
YORK           MOCLDY    68  67  96 CALM      29.99R
$$

PAZ038>040-043-044-047-048-054-055-060>062-067>071-210200-
EASTERN PENNSYLVANIA

CITY           SKY/WX    TMP DP  RH WIND       PRES   REMARKS
SCRANTON       CLOUDY    74  64  71 S5        30.00R
MOUNT POCONO   CLOUDY    69  63  81 SW5       30.05S
ALLENTOWN      CLOUDY    77  64  64 SW5       29.99R
QUAKERTOWN*    CLOUDY    77  64  65 MISG      30.01R
READING        CLOUDY    78  66  66 S6        29.97S
LANCASTER      CLOUDY    73  67  81 VRB3      29.99R
COATESVILLE    CLOUDY    73  66  78 SE3       30.01S
POTTSTOWN      CLOUDY    76  63  64 S6        30.01R
BLUE BELL      CLOUDY    77  64  65 S6        29.99S
DOYLESTOWN     MOCLDY    73  62  68 VRB7      30.00R
WILLOW GROVE   NOT AVBL
NORTH PHILA    MOCLDY    75  62  64 SE5       30.02R
PHILADELPHIA   MOCLDY    75  65  70 SE5       30.00S
$$


USA.gov is the U.S. government's official web portal to all federal, state and local government web resources and services.